User: anonymous   Login
Location: Unspecified
(0.0000°N, 0.0000°E)
Time: 00:15:01
(UTC+00:00)
Language:

STARLINK-5352 - Orbit

View from above orbital plane
View from above orbital plane
View from above satellite
View from above satellite

Ground track
Ground track

The orbit is defined by the following mean orbital elements,

1 56426U          26145.29978778 +.00000000 +00000-0 -43733-5 0 00007
2 56426  43.0033 107.1055 0001133 255.4824 104.5901 15.26738778    09
Epoch (UTC): 25 May 2026 07:11:41
Eccentricity: 0.0001133
inclination: 43.0033°
perigee height: 485 km
apogee height: 486 km
right ascension of ascending node: 107.1055°
argument of perigee: 255.4824°
revolutions per day: 15.26738778
mean anomaly at epoch: 104.5901°

The dashed part of the orbit path shows where the satellite is in the earth's shadow,  

DLR